Time,TemperatureF,DewpointF,PressureIn,WindDirection,WindDirectionDegrees,WindSpeedMPH,WindSpeedGustMPH,Humidity,HourlyPrecipIn,Conditions,Clouds,dailyrainin,SoftwareType,DateUTC
2013-03-17 00:03:00,29.0,11.0,29.84,North,9,2.0,-999.0,47,-99.99,,,-99.99,,2013-03-17 04:03:00,
2013-03-17 00:13:00,29.0,11.0,29.84,North,9,2.0,-999.0,47,-99.99,,,-99.99,,2013-03-17 04:13:00,
2013-03-17 00:23:00,29.0,11.0,29.85,North,360,1.0,-999.0,47,-99.99,,,-99.99,,2013-03-17 04:23:00,
2013-03-17 00:33:00,29.0,12.0,29.85,North,360,0.0,-999.0,49,-99.99,,,-99.99,,2013-03-17 04:33:00,
2013-03-17 00:43:00,29.0,12.0,29.85,North,360,0.0,-999.0,49,-99.99,,,-99.99,,2013-03-17 04:43:00,
2013-03-17 00:53:00,28.0,11.0,29.84,North,360,0.0,-999.0,49,-99.99,,,-99.99,,2013-03-17 04:53:00,
2013-03-17 01:03:00,28.0,12.0,29.85,North,360,0.0,-999.0,51,-99.99,,,-99.99,,2013-03-17 05:03:00,
2013-03-17 01:12:00,28.0,12.0,29.85,North,360,0.0,-999.0,51,-99.99,,,-99.99,,2013-03-17 05:12:00,
2013-03-17 01:22:00,27.0,12.0,29.85,North,360,0.0,-999.0,52,-99.99,,,-99.99,,2013-03-17 05:22:00,
2013-03-17 01:32:00,27.0,11.0,29.85,North,360,0.0,-999.0,51,-99.99,,,-99.99,,2013-03-17 05:32:00,
2013-03-17 01:42:00,27.0,11.0,29.85,North,360,0.0,-999.0,51,-99.99,,,-99.99,,2013-03-17 05:42:00,
2013-03-17 01:52:00,27.0,12.0,29.86,North,360,0.0,-999.0,53,-99.99,,,-99.99,,2013-03-17 05:52:00,
2013-03-17 02:02:00,26.0,12.0,29.86,North,360,0.0,-999.0,55,-99.99,,,-99.99,,2013-03-17 06:02:00,
2013-03-17 02:12:00,26.0,12.0,29.86,North,360,0.0,-999.0,55,-99.99,,,-99.99,,2013-03-17 06:12:00,
2013-03-17 02:22:00,26.0,13.0,29.86,North,360,0.0,-999.0,57,-99.99,,,-99.99,,2013-03-17 06:22:00,
2013-03-17 02:32:00,25.0,12.0,29.86,North,360,0.0,-999.0,57,-99.99,,,-99.99,,2013-03-17 06:32:00,
2013-03-17 02:42:00,25.0,12.0,29.86,North,360,0.0,-999.0,57,-99.99,,,-99.99,,2013-03-17 06:42:00,
2013-03-17 02:52:00,25.0,13.0,29.86,North,360,0.0,-999.0,59,-99.99,,,-99.99,,2013-03-17 06:52:00,
2013-03-17 03:02:00,24.0,13.0,29.86,North,360,0.0,-999.0,62,-99.99,,,-99.99,,2013-03-17 07:02:00,
2013-03-17 03:12:00,24.0,13.0,29.86,North,360,0.0,-999.0,62,-99.99,,,-99.99,,2013-03-17 07:12:00,
2013-03-17 03:22:00,24.0,13.0,29.85,North,360,0.0,-999.0,62,-99.99,,,-99.99,,2013-03-17 07:22:00,
2013-03-17 03:32:00,23.0,12.0,29.87,North,360,0.0,-999.0,63,-99.99,,,-99.99,,2013-03-17 07:32:00,
2013-03-17 03:42:00,23.0,12.0,29.87,North,360,0.0,-999.0,63,-99.99,,,-99.99,,2013-03-17 07:42:00,
2013-03-17 03:52:00,23.0,12.0,29.86,North,360,0.0,-999.0,63,-99.99,,,-99.99,,2013-03-17 07:52:00,
2013-03-17 04:03:00,23.0,13.0,29.86,North,360,0.0,-999.0,64,-99.99,,,-99.99,,2013-03-17 08:03:00,
2013-03-17 04:13:00,22.0,12.0,29.88,North,360,0.0,-999.0,66,-99.99,,,-99.99,,2013-03-17 08:13:00,
2013-03-17 04:22:00,22.0,12.0,29.88,North,360,0.0,-999.0,66,-99.99,,,-99.99,,2013-03-17 08:22:00,
2013-03-17 04:33:00,22.0,13.0,29.88,North,360,0.0,-999.0,67,-99.99,,,-99.99,,2013-03-17 08:33:00,
2013-03-17 04:42:00,22.0,13.0,29.88,North,360,0.0,-999.0,67,-99.99,,,-99.99,,2013-03-17 08:42:00,
2013-03-17 04:52:00,21.0,12.0,29.88,North,360,0.0,-999.0,68,-99.99,,,-99.99,,2013-03-17 08:52:00,
2013-03-17 05:03:00,21.0,12.0,29.88,North,360,0.0,-999.0,67,-99.99,,,-99.99,,2013-03-17 09:03:00,
2013-03-17 05:12:00,21.0,12.0,29.88,North,360,0.0,-999.0,67,-99.99,,,-99.99,,2013-03-17 09:12:00,
2013-03-17 05:22:00,21.0,12.0,29.89,North,360,0.0,-999.0,67,-99.99,,,-99.99,,2013-03-17 09:22:00,
2013-03-17 05:32:00,21.0,12.0,29.90,North,360,0.0,-999.0,67,-99.99,,,-99.99,,2013-03-17 09:32:00,
2013-03-17 05:43:00,21.0,12.0,29.90,North,360,0.0,-999.0,67,-99.99,,,-99.99,,2013-03-17 09:43:00,
2013-03-17 05:53:00,22.0,12.0,29.90,WNW,298,0.0,-999.0,65,-99.99,,,-99.99,,2013-03-17 09:53:00,
2013-03-17 06:03:00,22.0,12.0,29.90,WNW,298,0.0,-999.0,66,-99.99,,,-99.99,,2013-03-17 10:03:00,
2013-03-17 06:13:00,22.0,12.0,29.90,WNW,298,0.0,-999.0,66,-99.99,,,-99.99,,2013-03-17 10:13:00,
2013-03-17 06:23:00,22.0,13.0,29.90,WNW,298,0.0,-999.0,67,-99.99,,,-99.99,,2013-03-17 10:23:00,
2013-03-17 06:33:00,22.0,13.0,29.91,WNW,298,0.0,-999.0,67,-99.99,,,-99.99,,2013-03-17 10:33:00,
2013-03-17 06:42:00,22.0,13.0,29.91,WNW,298,0.0,-999.0,67,-99.99,,,-99.99,,2013-03-17 10:42:00,
2013-03-17 06:52:00,21.0,12.0,29.91,WNW,298,0.0,-999.0,67,-99.99,,,-99.99,,2013-03-17 10:52:00,
2013-03-17 07:03:00,21.0,12.0,29.91,WNW,298,0.0,-999.0,69,-99.99,,,-99.99,,2013-03-17 11:03:00,
2013-03-17 07:12:00,21.0,12.0,29.91,WNW,298,0.0,-999.0,69,-99.99,,,-99.99,,2013-03-17 11:12:00,
2013-03-17 07:22:00,20.0,12.0,29.92,WNW,298,0.0,-999.0,70,-99.99,,,-99.99,,2013-03-17 11:22:00,
2013-03-17 07:32:00,20.0,12.0,29.94,WNW,298,0.0,-999.0,72,-99.99,,,-99.99,,2013-03-17 11:32:00,
2013-03-17 07:42:00,20.0,12.0,29.94,WNW,298,0.0,-999.0,72,-99.99,,,-99.99,,2013-03-17 11:42:00,
2013-03-17 07:52:00,20.0,12.0,29.95,WNW,298,0.0,-999.0,72,-99.99,,,-99.99,,2013-03-17 11:52:00,
2013-03-17 08:02:00,20.0,12.0,29.96,WNW,298,0.0,-999.0,70,-99.99,,,-99.99,,2013-03-17 12:02:00,
2013-03-17 08:12:00,20.0,12.0,29.96,WNW,298,0.0,-999.0,70,-99.99,,,-99.99,,2013-03-17 12:12:00,
2013-03-17 08:22:00,21.0,12.0,29.97,WNW,290,0.0,-999.0,69,-99.99,,,-99.99,,2013-03-17 12:22:00,
2013-03-17 08:33:00,23.0,14.0,29.98,West,274,2.0,-999.0,68,-99.99,,,-99.99,,2013-03-17 12:33:00,
2013-03-17 08:43:00,23.0,14.0,29.98,West,274,2.0,-999.0,68,-99.99,,,-99.99,,2013-03-17 12:43:00,
2013-03-17 08:52:00,24.0,14.0,29.98,NW,310,4.0,-999.0,64,-99.99,,,-99.99,,2013-03-17 12:52:00,
2013-03-17 09:02:00,26.0,14.0,30.00,WSW,243,2.0,-999.0,61,-99.99,,,-99.99,,2013-03-17 13:02:00,
2013-03-17 09:12:00,26.0,14.0,30.00,WSW,243,2.0,-999.0,61,-99.99,,,-99.99,,2013-03-17 13:12:00,
2013-03-17 09:22:00,26.0,14.0,29.99,West,275,2.0,-999.0,60,-99.99,,,-99.99,,2013-03-17 13:22:00,
2013-03-17 09:32:00,27.0,13.0,29.99,NW,317,3.0,-999.0,56,-99.99,,,-99.99,,2013-03-17 13:32:00,
2013-03-17 09:42:00,27.0,13.0,29.99,NW,317,3.0,-999.0,56,-99.99,,,-99.99,,2013-03-17 13:42:00,
2013-03-17 09:52:00,28.0,11.0,29.99,WNW,300,6.0,-999.0,49,-99.99,,,-99.99,,2013-03-17 13:52:00,
2013-03-17 10:02:00,30.0,11.0,29.99,NW,315,1.0,-999.0,45,-99.99,,,-99.99,,2013-03-17 14:02:00,
2013-03-17 10:12:00,30.0,11.0,29.99,NW,315,1.0,-999.0,45,-99.99,,,-99.99,,2013-03-17 14:12:00,
2013-03-17 10:22:00,30.0,10.0,29.98,WNW,300,7.0,-999.0,43,-99.99,,,-99.99,,2013-03-17 14:22:00,
2013-03-17 10:33:00,30.0,10.0,29.99,West,279,5.0,-999.0,43,-99.99,,,-99.99,,2013-03-17 14:33:00,
2013-03-17 10:42:00,30.0,10.0,29.99,West,279,5.0,-999.0,43,-99.99,,,-99.99,,2013-03-17 14:42:00,
2013-03-17 10:52:00,30.0,11.0,29.99,West,269,7.0,-999.0,44,-99.99,,,-99.99,,2013-03-17 14:52:00,
2013-03-17 11:02:00,31.0,11.0,29.99,North,11,7.0,-999.0,43,-99.99,,,-99.99,,2013-03-17 15:02:00,
2013-03-17 11:12:00,31.0,11.0,29.99,North,11,7.0,-999.0,43,-99.99,,,-99.99,,2013-03-17 15:12:00,
2013-03-17 11:23:00,32.0,12.0,30.00,WNW,294,6.0,-999.0,42,-99.99,,,-99.99,,2013-03-17 15:23:00,
2013-03-17 11:33:00,33.0,11.0,29.99,WNW,288,6.0,-999.0,40,-99.99,,,-99.99,,2013-03-17 15:33:00,
2013-03-17 11:43:00,33.0,11.0,29.99,WNW,288,6.0,-999.0,40,-99.99,,,-99.99,,2013-03-17 15:43:00,
2013-03-17 11:52:00,32.0,10.0,30.00,SSW,211,7.0,-999.0,40,-99.99,,,-99.99,,2013-03-17 15:52:00,
2013-03-17 12:03:00,33.0,11.0,30.00,WSW,248,7.0,-999.0,39,-99.99,,,-99.99,,2013-03-17 16:03:00,
2013-03-17 12:12:00,33.0,11.0,30.00,WSW,248,7.0,-999.0,39,-99.99,,,-99.99,,2013-03-17 16:12:00,
2013-03-17 12:23:00,34.0,11.0,30.01,West,281,6.0,-999.0,38,-99.99,,,-99.99,,2013-03-17 16:23:00,
2013-03-17 12:33:00,34.0,11.0,30.00,NW,306,7.0,-999.0,37,-99.99,,,-99.99,,2013-03-17 16:33:00,
2013-03-17 12:43:00,34.0,11.0,30.00,NW,306,7.0,-999.0,37,-99.99,,,-99.99,,2013-03-17 16:43:00,
2013-03-17 12:52:00,34.0,9.0,30.00,West,268,7.0,-999.0,35,-99.99,,,-99.99,,2013-03-17 16:52:00,
2013-03-17 13:03:00,35.0,9.0,30.01,West,281,6.0,-999.0,34,-99.99,,,-99.99,,2013-03-17 17:03:00,
2013-03-17 13:12:00,35.0,9.0,30.01,West,281,6.0,-999.0,34,-99.99,,,-99.99,,2013-03-17 17:12:00,
2013-03-17 13:22:00,35.0,9.0,30.00,NNW,344,7.0,-999.0,33,-99.99,,,-99.99,,2013-03-17 17:22:00,
2013-03-17 13:33:00,34.0,8.0,30.00,NNW,327,6.0,-999.0,33,-99.99,,,-99.99,,2013-03-17 17:33:00,
2013-03-17 13:42:00,34.0,8.0,30.00,NNW,327,6.0,-999.0,33,-99.99,,,-99.99,,2013-03-17 17:42:00,
2013-03-17 13:52:00,34.0,7.0,30.00,West,276,6.0,-999.0,31,-99.99,,,-99.99,,2013-03-17 17:52:00,
2013-03-17 14:02:00,35.0,7.0,30.00,NW,315,7.0,-999.0,30,-99.99,,,-99.99,,2013-03-17 18:02:00,
2013-03-17 14:12:00,35.0,7.0,30.00,NW,315,7.0,-999.0,30,-99.99,,,-99.99,,2013-03-17 18:12:00,
2013-03-17 14:22:00,35.0,6.0,30.00,WNW,290,7.0,-999.0,29,-99.99,,,-99.99,,2013-03-17 18:22:00,
2013-03-17 14:32:00,35.0,6.0,30.00,NW,304,9.0,-999.0,29,-99.99,,,-99.99,,2013-03-17 18:32:00,
2013-03-17 14:42:00,35.0,6.0,30.00,NW,304,9.0,-999.0,29,-99.99,,,-99.99,,2013-03-17 18:42:00,
2013-03-17 14:52:00,35.0,6.0,30.00,NW,304,9.0,-999.0,29,-99.99,,,-99.99,,2013-03-17 18:52:00,
2013-03-17 15:02:00,35.0,7.0,30.01,WSW,254,6.0,-999.0,30,-99.99,,,-99.99,,2013-03-17 19:02:00,
2013-03-17 15:12:00,35.0,7.0,30.01,WSW,254,6.0,-999.0,30,-99.99,,,-99.99,,2013-03-17 19:12:00,
2013-03-17 15:23:00,35.0,7.0,30.01,WSW,240,7.0,-999.0,30,-99.99,,,-99.99,,2013-03-17 19:23:00,
2013-03-17 15:33:00,35.0,7.0,30.01,West,276,7.0,-999.0,30,-99.99,,,-99.99,,2013-03-17 19:33:00,
2013-03-17 15:42:00,35.0,7.0,30.01,West,276,7.0,-999.0,30,-99.99,,,-99.99,,2013-03-17 19:42:00,
2013-03-17 15:53:00,36.0,7.0,30.03,NW,304,6.0,-999.0,29,-99.99,,,-99.99,,2013-03-17 19:53:00,
2013-03-17 16:02:00,35.0,7.0,30.03,WNW,302,6.0,-999.0,30,-99.99,,,-99.99,,2013-03-17 20:02:00,
2013-03-17 16:12:00,35.0,7.0,30.03,WNW,302,6.0,-999.0,30,-99.99,,,-99.99,,2013-03-17 20:12:00,
2013-03-17 16:22:00,34.0,6.0,30.04,WNW,294,7.0,-999.0,30,-99.99,,,-99.99,,2013-03-17 20:22:00,
2013-03-17 16:33:00,34.0,7.0,30.04,NW,306,6.0,-999.0,32,-99.99,,,-99.99,,2013-03-17 20:33:00,
2013-03-17 16:42:00,34.0,7.0,30.04,NW,306,6.0,-999.0,32,-99.99,,,-99.99,,2013-03-17 20:42:00,
2013-03-17 16:52:00,34.0,7.0,30.05,NW,310,5.0,-999.0,32,-99.99,,,-99.99,,2013-03-17 20:52:00,
2013-03-17 17:03:00,33.0,7.0,30.06,NNE,18,6.0,-999.0,33,-99.99,,,-99.99,,2013-03-17 21:03:00,
2013-03-17 17:12:00,33.0,7.0,30.06,NNE,18,6.0,-999.0,33,-99.99,,,-99.99,,2013-03-17 21:12:00,
2013-03-17 17:22:00,33.0,7.0,30.05,WNW,292,5.0,-999.0,33,-99.99,,,-99.99,,2013-03-17 21:22:00,
2013-03-17 17:33:00,33.0,7.0,30.06,NW,321,4.0,-999.0,33,-99.99,,,-99.99,,2013-03-17 21:33:00,
2013-03-17 17:43:00,33.0,7.0,30.06,NW,321,4.0,-999.0,33,-99.99,,,-99.99,,2013-03-17 21:43:00,
2013-03-17 17:52:00,33.0,8.0,30.07,WNW,298,4.0,-999.0,34,-99.99,,,-99.99,,2013-03-17 21:52:00,
2013-03-17 18:03:00,33.0,8.0,30.08,NNE,30,5.0,-999.0,34,-99.99,,,-99.99,,2013-03-17 22:03:00,
2013-03-17 18:13:00,32.0,7.0,30.08,NNW,328,3.0,-999.0,35,-99.99,,,-99.99,,2013-03-17 22:13:00,
2013-03-17 18:23:00,32.0,7.0,30.08,NNW,328,3.0,-999.0,35,-99.99,,,-99.99,,2013-03-17 22:23:00,
2013-03-17 18:33:00,32.0,8.0,30.09,NW,306,2.0,-999.0,36,-99.99,,,-99.99,,2013-03-17 22:33:00,
2013-03-17 18:42:00,32.0,8.0,30.09,NW,306,2.0,-999.0,36,-99.99,,,-99.99,,2013-03-17 22:42:00,
2013-03-17 18:52:00,31.0,7.0,30.10,NNW,333,2.0,-999.0,36,-99.99,,,-99.99,,2013-03-17 22:52:00,
2013-03-17 19:03:00,31.0,7.0,30.11,North,355,0.0,-999.0,36,-99.99,,,-99.99,,2013-03-17 23:03:00,
2013-03-17 19:12:00,31.0,7.0,30.11,North,355,0.0,-999.0,36,-99.99,,,-99.99,,2013-03-17 23:12:00,
2013-03-17 19:22:00,30.0,7.0,30.11,NNW,333,2.0,-999.0,37,-99.99,,,-99.99,,2013-03-17 23:22:00,
2013-03-17 19:33:00,30.0,8.0,30.13,NW,305,1.0,-999.0,39,-99.99,,,-99.99,,2013-03-17 23:33:00,
2013-03-17 19:42:00,30.0,8.0,30.13,NW,305,1.0,-999.0,39,-99.99,,,-99.99,,2013-03-17 23:42:00,
2013-03-17 19:52:00,29.0,7.0,30.15,NW,324,0.0,-999.0,38,-99.99,,,-99.99,,2013-03-17 23:52:00,
2013-03-17 20:03:00,29.0,7.0,30.15,WNW,292,1.0,-999.0,39,-99.99,,,-99.99,,2013-03-18 00:03:00,
2013-03-17 20:12:00,29.0,7.0,30.15,WNW,292,1.0,-999.0,39,-99.99,,,-99.99,,2013-03-18 00:12:00,
2013-03-17 20:22:00,28.0,6.0,30.16,WNW,302,1.0,-999.0,39,-99.99,,,-99.99,,2013-03-18 00:22:00,
2013-03-17 20:33:00,28.0,7.0,30.16,West,278,1.0,-999.0,40,-99.99,,,-99.99,,2013-03-18 00:33:00,
2013-03-17 20:42:00,28.0,7.0,30.16,West,278,1.0,-999.0,40,-99.99,,,-99.99,,2013-03-18 00:42:00,
2013-03-17 20:52:00,28.0,7.0,30.18,NNW,348,0.0,-999.0,40,-99.99,,,-99.99,,2013-03-18 00:52:00,
2013-03-17 21:02:00,28.0,6.0,30.19,NW,309,1.0,-999.0,39,-99.99,,,-99.99,,2013-03-18 01:02:00,
2013-03-17 21:12:00,28.0,6.0,30.19,NW,309,1.0,-999.0,39,-99.99,,,-99.99,,2013-03-18 01:12:00,
2013-03-17 21:22:00,28.0,6.0,30.20,NNW,341,1.0,-999.0,39,-99.99,,,-99.99,,2013-03-18 01:22:00,
2013-03-17 21:33:00,28.0,6.0,30.22,NNW,333,1.0,-999.0,39,-99.99,,,-99.99,,2013-03-18 01:33:00,
2013-03-17 21:42:00,28.0,6.0,30.22,NNW,333,1.0,-999.0,39,-99.99,,,-99.99,,2013-03-18 01:42:00,
2013-03-17 21:52:00,27.0,4.0,30.22,NW,306,3.0,-999.0,36,-99.99,,,-99.99,,2013-03-18 01:52:00,
2013-03-17 22:02:00,27.0,4.0,30.23,NW,313,3.0,-999.0,37,-99.99,,,-99.99,,2013-03-18 02:02:00,
2013-03-17 22:12:00,27.0,4.0,30.23,NW,313,3.0,-999.0,37,-99.99,,,-99.99,,2013-03-18 02:12:00,
2013-03-17 22:22:00,27.0,4.0,30.23,NNW,348,1.0,-999.0,37,-99.99,,,-99.99,,2013-03-18 02:22:00,
2013-03-17 22:32:00,27.0,4.0,30.24,North,349,1.0,-999.0,37,-99.99,,,-99.99,,2013-03-18 02:32:00,
2013-03-17 22:42:00,27.0,4.0,30.24,North,349,1.0,-999.0,37,-99.99,,,-99.99,,2013-03-18 02:42:00,
2013-03-17 22:52:00,26.0,4.0,30.25,NW,316,2.0,-999.0,39,-99.99,,,-99.99,,2013-03-18 02:52:00,
2013-03-17 23:03:00,26.0,6.0,30.26,North,9,2.0,-999.0,41,-99.99,,,-99.99,,2013-03-18 03:03:00,
2013-03-17 23:12:00,26.0,6.0,30.26,North,9,2.0,-999.0,41,-99.99,,,-99.99,,2013-03-18 03:12:00,
2013-03-17 23:22:00,25.0,5.0,30.27,NNE,19,3.0,-999.0,41,-99.99,,,-99.99,,2013-03-18 03:22:00,
2013-03-17 23:33:00,25.0,5.0,30.27,NNW,340,1.0,-999.0,41,-99.99,,,-99.99,,2013-03-18 03:33:00,
2013-03-17 23:42:00,25.0,5.0,30.27,NNW,340,1.0,-999.0,41,-99.99,,,-99.99,,2013-03-18 03:42:00,
2013-03-17 23:53:00,24.0,4.0,30.28,NNW,332,2.0,-999.0,41,-99.99,,,-99.99,,2013-03-18 03:53:00,